Waarnemingen

Advertentie
Mijn weer
Groningen Eelde, Nederland (6280): temperatuur & dauwpunt: 21.03.2017 06:00:00 - 27.03.2017 06:00:00 (CEST)Groningen Eelde, Nederland (6280): temperatuur 5cm: 21.03.2017 06:00:00 - 27.03.2017 06:00:00 (CEST)Groningen Eelde, Nederland (6280): windsnelheid & windstoten: 21.03.2017 06:00:00 - 27.03.2017 06:00:00 (CEST)Groningen Eelde, Nederland (6280): windrichting: 21.03.2017 06:00:00 - 27.03.2017 06:00:00 (CEST)Groningen Eelde, Nederland (6280): luchtdruk: 21.03.2017 06:00:00 - 27.03.2017 06:00:00 (CEST)Groningen Eelde, Nederland (6280): zicht: 21.03.2017 06:00:00 - 27.03.2017 06:00:00 (CEST)Groningen Eelde, Nederland (6280): neerslag: 21.03.2017 06:00:00 - 27.03.2017 06:00:00 (CEST)
Datum & Tijd tt [°C] td [°C] tt 5cm [°C] ff [km/u] ff [kn] fx [km/u] fx [kn] dd ppp [hPa] vv [km] rr [mm]
27.03.2017 06:00:00 3,0 3,0 2,9 13 7 18 10 O 1025,4 0,5 0,0
27.03.2017 05:00:00 3,4 3,4 3,3 11 6 18 10 O 1025,5 0,8 0,0
27.03.2017 04:00:00 3,6 3,6 3,6 15 8 18 10 ONO 1025,7 0,4 0,0
27.03.2017 03:00:00 4,2 4,2 4,1 15 8 18 10 ONO 1026,1 0,5 0,0
27.03.2017 02:00:00 2,5 2,5 0,8 11 6 14 8 ONO 1026,3 1,6 0,0
27.03.2017 01:00:00 3,4 3,4 2,0 11 6 14 8 ONO 1026,7 2,7 0,0
27.03.2017 00:00:00 3,8 3,6 2,3 11 6 18 10 ONO 1026,8 3,6 0,0
26.03.2017 23:00:00 4,5 4,3 2,9 11 6 14 8 ONO 1026,8 6 0,0
26.03.2017 22:00:00 4,5 4,2 2,3 11 6 14 8 ONO 1026,7 7 0,0
26.03.2017 21:00:00 6,4 5,5 4,9 9 5 14 8 NNO 1026,4 10 0,0
26.03.2017 20:00:00 7,3 5,4 5,4 9 5 18 10 NNO 1026,1 10 0,0
26.03.2017 19:00:00 9,0 5,3 8,0 18 10 25 14 ONO 1025,9 10 0,0
26.03.2017 18:00:00 9,7 5,8 9,4 15 8 25 14 NO 1026,1 10 0,0
26.03.2017 17:00:00 9,7 6,3 9,9 15 8 25 14 ONO 1026,3 10 0,0
26.03.2017 16:00:00 9,3 5,8 9,9 15 8 25 14 NO 1026,7 10 0,0
26.03.2017 15:00:00 8,9 5,9 9,4 13 7 22 12 ONO 1027,2 10 0,0
26.03.2017 14:00:00 8,7 5,9 9,4 13 7 22 12 ONO 1027,4 10 0,0
26.03.2017 13:00:00 8,3 5,9 8,9 11 6 22 12 NO 1027,6 10 0,0
26.03.2017 12:00:00 7,9 5,9 8,7 9 5 18 10 O 1027,3 10 0,0
26.03.2017 11:00:00 7,2 5,6 7,9 9 5 14 8 ONO 1027,5 10 0,0
26.03.2017 10:00:00 5,9 5,1 6,5 5 3 14 8 ONO 1027,5 6 0,0
26.03.2017 09:00:00 4,3 3,5 4,1 8 4 14 8 ZO 1026,9 9 0,0
26.03.2017 08:00:00 1,0 1,0 -2,6 4 2 7 4 - 1026,8 0,3 0,0
26.03.2017 07:00:00 0,6 0,5 -1,9 5 3 7 4 N 1026,6 3,8 0,0
26.03.2017 06:00:00 2,8 2,3 -0,2 5 3 11 6 N 1026,7 9 0,0
26.03.2017 05:00:00 3,5 2,8 0,8 8 4 14 8 NNO 1026,7 10 0,0
26.03.2017 04:00:00 3,6 2,9 1,5 8 4 14 8 N 1027,0 10 0,0
26.03.2017 03:00:00 4,2 3,7 2,4 8 4 14 8 N 1027,4 10 0,0
26.03.2017 02:00:00 4,4 3,8 2,6 9 5 14 8 N 1027,8 10 0,0
26.03.2017 01:00:00 2,1 1,6 -0,6 5 3 11 6 N 1027,8 10 0,0
26.03.2017 00:00:00 3,9 2,8 2,2 9 5 14 8 N 1028,2 10 0,0
25.03.2017 23:00:00 4,6 3,5 2,5 8 4 11 6 NO 1029,0 10 0,0
25.03.2017 22:00:00 5,5 3,7 4,1 9 5 14 8 NNO 1028,8 10 0,0
25.03.2017 21:00:00 6,0 3,4 4,5 9 5 18 10 NNO 1028,7 10 0,0
25.03.2017 20:00:00 7,0 2,3 5,5 13 7 22 12 NNO 1028,6 10 0,0
25.03.2017 19:00:00 8,3 1,4 7,3 15 8 25 14 NNO 1028,5 10 0,0
25.03.2017 18:00:00 10,2 -0,9 9,9 16 9 25 14 NNO 1028,9 10 0,0
25.03.2017 17:00:00 11,1 -2,1 11,4 16 9 25 14 N 1029,6 10 0,0
25.03.2017 16:00:00 11,6 -4,9 12,9 16 9 29 16 NNO 1030,4 10 0,0
25.03.2017 15:00:00 11,8 -0,8 12,8 21 11 29 16 N 1031,2 10 0,0
25.03.2017 14:00:00 11,9 -1,5 13,4 15 8 32 18 NNO 1031,9 10 0,0
25.03.2017 13:00:00 11,7 -2,0 12,9 11 6 18 10 N 1032,6 10 0,0
25.03.2017 12:00:00 10,3 -2,0 12,6 9 5 14 8 ONO 1033,1 10 0,0
25.03.2017 11:00:00 8,8 -1,0 10,3 8 4 14 8 NO 1033,5 10 0,0
25.03.2017 10:00:00 7,0 3,1 8,2 9 5 14 8 NO 1033,6 10 0,0
25.03.2017 09:00:00 2,8 2,6 0,8 0 0 4 2 N 1033,3 10 0,0
25.03.2017 08:00:00 -1,0 -1,0 -4,6 4 2 7 4 N 1033,3 9 0,0
25.03.2017 07:00:00 -0,1 -0,4 -4,9 2 1 4 2 O 1033,2 4,4 0,0
25.03.2017 06:00:00 -0,2 -0,3 -4,6 5 3 7 4 NNO 1033,2 6 0,0
25.03.2017 05:00:00 -0,2 -0,4 -4,1 0 0 4 2 N 1033,4 9 0,0
25.03.2017 04:00:00 0,2 -0,5 -3,3 2 1 7 4 - 1033,8 9 0,0
25.03.2017 03:00:00 0,8 0,2 -2,7 2 1 4 2 W 1034,3 9 0,0
25.03.2017 02:00:00 1,2 0,6 -2,4 2 1 7 4 NNO 1034,6 10 0,0
25.03.2017 01:00:00 3,0 1,0 -1,1 8 4 14 8 NO 1034,4 10 0,0
25.03.2017 00:00:00 3,7 1,0 1,4 9 5 18 10 NO 1034,4 10 0,0
24.03.2017 23:00:00 4,7 1,4 2,7 11 6 18 10 NO 1034,3 10 0,0
24.03.2017 22:00:00 5,9 2,4 4,1 15 8 22 12 NNO 1034,1 10 0,0
24.03.2017 21:00:00 6,9 2,9 5,2 13 7 18 10 NNO 1033,6 10 0,0
24.03.2017 20:00:00 8,0 2,2 6,4 15 8 25 14 NNO 1032,7 10 0,0
24.03.2017 19:00:00 9,9 2,9 8,8 18 10 32 18 NO 1032,0 10 0,0
24.03.2017 18:00:00 11,7 2,5 11,3 21 11 32 18 NO 1032,0 10 0,0
24.03.2017 17:00:00 12,2 1,4 12,4 22 12 32 18 NO 1031,9 10 0,0
24.03.2017 16:00:00 13,0 1,7 13,6 18 10 29 16 ONO 1032,1 10 0,0
24.03.2017 15:00:00 12,2 0,7 13,4 16 9 29 16 O 1032,3 10 0,0
24.03.2017 14:00:00 11,5 1,1 12,3 16 9 32 18 O 1032,6 10 0,0
24.03.2017 13:00:00 10,9 -0,1 12,0 18 10 36 19 O 1032,2 10 0,0
24.03.2017 12:00:00 9,7 1,2 10,5 22 12 32 18 O 1031,9 10 0,0
24.03.2017 11:00:00 8,6 2,0 9,3 18 10 29 16 ONO 1031,7 10 0,0
24.03.2017 10:00:00 6,6 1,6 7,4 18 10 29 16 O 1031,1 10 0,0
24.03.2017 09:00:00 4,9 1,5 4,5 13 7 22 12 ONO 1030,6 10 0,0
24.03.2017 08:00:00 2,5 0,9 1,0 16 9 22 12 ONO 1030,0 9 0,0
24.03.2017 07:00:00 1,9 0,6 0,1 11 6 18 10 ONO 1029,7 9 0,0
24.03.2017 06:00:00 2,3 0,9 1,2 15 8 22 12 NO 1028,6 10 0,0
24.03.2017 05:00:00 2,6 0,9 1,2 15 8 22 12 ONO 1028,1 10 0,0
24.03.2017 04:00:00 3,2 0,8 1,8 16 9 25 14 ONO 1027,7 10 0,0
24.03.2017 03:00:00 4,0 0,9 2,5 18 10 25 14 ONO 1027,5 10 0,0
24.03.2017 02:00:00 4,3 1,0 2,7 16 9 22 12 ONO 1026,4 10 0,0
24.03.2017 01:00:00 4,9 1,3 3,5 16 9 25 14 NO 1025,8 10 0,0
24.03.2017 00:00:00 5,7 2,4 3,9 15 8 25 14 ONO 1025,5 10 0,0
23.03.2017 23:00:00 5,9 2,8 4,5 18 10 32 18 ONO 1024,8 10 0,0
23.03.2017 22:00:00 6,2 3,4 5,1 16 9 29 16 ONO 1024,0 10 0,0
23.03.2017 21:00:00 6,0 3,1 4,2 13 7 29 16 ONO 1023,3 10 0,0
23.03.2017 20:00:00 8,5 3,7 7,7 22 12 36 19 ONO 1022,2 10 0,0
23.03.2017 19:00:00 9,5 3,8 9,0 21 11 36 19 O 1021,4 10 0,0
23.03.2017 18:00:00 10,2 4,4 10,0 24 13 36 19 ONO 1020,2 10 0,0
23.03.2017 17:00:00 10,9 4,6 11,1 24 13 40 21 ONO 1019,6 10 0,0
23.03.2017 16:00:00 11,5 4,7 12,5 24 13 43 23 ONO 1019,4 10 0,0
23.03.2017 15:00:00 10,9 4,2 11,9 26 14 36 19 ONO 1019,4 10 0,0
23.03.2017 14:00:00 11,3 4,5 12,4 21 11 32 18 NO 1019,5 10 0,0
23.03.2017 13:00:00 10,2 3,2 11,6 21 11 32 18 ONO 1019,4 10 0,0
23.03.2017 12:00:00 8,5 2,6 9,8 22 12 29 16 ONO 1019,2 10 0,0
23.03.2017 11:00:00 8,2 2,1 9,5 16 9 25 14 ONO 1019,0 10 0,0
23.03.2017 10:00:00 6,5 0,7 6,9 18 10 29 16 ONO 1018,8 10 0,0
23.03.2017 09:00:00 4,9 0,9 4,4 11 6 18 10 NO 1018,5 10 0,0
23.03.2017 08:00:00 2,0 -0,3 0,5 13 7 18 10 ONO 1017,8 10 0,0
23.03.2017 07:00:00 0,9 -1,1 -0,7 11 6 18 10 ONO 1017,3 10 0,0
23.03.2017 06:00:00 2,0 -0,8 -1,0 8 4 14 8 ONO 1016,9 10 0,0
23.03.2017 05:00:00 2,5 -0,7 0,9 9 5 14 8 O 1016,7 10 0,0
23.03.2017 04:00:00 4,1 -0,6 2,4 9 5 18 10 O 1016,8 10 0,0
23.03.2017 03:00:00 4,6 -0,8 2,8 13 7 18 10 O 1016,5 10 0,0
23.03.2017 02:00:00 4,9 -0,4 3,0 11 6 18 10 O 1016,5 10 0,0
23.03.2017 01:00:00 5,9 0,2 4,5 13 7 18 10 O 1016,4 10 0,0
23.03.2017 00:00:00 5,2 0,4 2,7 11 6 14 8 O 1016,4 10 0,0
22.03.2017 23:00:00 4,6 0,3 1,7 9 5 14 8 O 1016,3 10 0,0
22.03.2017 22:00:00 6,7 -1,2 3,5 9 5 14 8 O 1015,8 10 0,0
22.03.2017 21:00:00 7,1 -1,0 4,4 8 4 14 8 O 1015,4 10 0,0
22.03.2017 20:00:00 8,7 -2,1 6,7 9 5 18 10 O 1015,0 10 0,0
22.03.2017 19:00:00 11,2 -6,4 9,3 15 8 25 14 OZO 1014,5 10 0,0
22.03.2017 18:00:00 11,5 -5,8 10,5 13 7 29 16 OZO 1014,1 10 0,0
22.03.2017 17:00:00 11,8 -6,0 12,2 18 10 32 18 OZO 1014,2 10 0,0
22.03.2017 16:00:00 12,0 -1,4 13,2 18 10 29 16 OZO 1014,3 31 0,0
22.03.2017 15:00:00 12,1 -1,2 13,6 13 7 29 16 ZZO 1014,7 10 0,0
22.03.2017 14:00:00 11,3 -1,8 13,4 18 10 29 16 Z 1015,0 10 0,0
22.03.2017 13:00:00 10,6 -0,8 12,2 18 10 29 16 Z 1015,0 10 0,0
22.03.2017 12:00:00 9,8 0,9 11,3 18 10 32 18 Z 1015,1 10 0,0
22.03.2017 11:00:00 8,1 1,4 9,7 13 7 22 12 Z 1015,0 10 0,0
22.03.2017 10:00:00 6,0 1,2 6,7 8 4 14 8 Z 1014,5 10 0,0
22.03.2017 09:00:00 3,1 -0,5 2,2 11 6 14 8 Z 1013,9 10 0,0
22.03.2017 08:00:00 1,3 -1,3 -1,1 8 4 14 8 ZZO 1013,3 10 0,0
22.03.2017 07:00:00 1,7 -1,2 0,4 13 7 22 12 Z 1013,5 10 0,0
22.03.2017 06:00:00 1,9 -0,9 0,6 13 7 18 10 Z 1013,2 10 0,0
22.03.2017 05:00:00 2,5 -0,7 1,1 15 8 22 12 Z 1012,7 10 0,0
22.03.2017 04:00:00 2,8 -0,6 1,1 13 7 22 12 ZZW 1012,5 10 0,0
22.03.2017 03:00:00 2,7 0,0 1,4 15 8 22 12 ZZW 1012,6 10 0,0
22.03.2017 02:00:00 3,0 -0,4 1,9 15 8 22 12 ZZW 1012,6 10 0,0
22.03.2017 01:00:00 2,5 -0,7 0,9 11 6 22 12 ZZW 1012,4 10 0,0
22.03.2017 00:00:00 3,7 -0,4 2,4 16 9 22 12 ZZW 1012,2 10 0,0
21.03.2017 23:00:00 3,8 0,1 2,3 13 7 22 12 ZZW 1011,8 10 0,0
21.03.2017 22:00:00 3,7 0,1 1,9 11 6 18 10 ZZW 1011,6 10 0,0
21.03.2017 21:00:00 3,9 -0,4 1,1 13 7 18 10 ZZW 1011,3 10 0,0
21.03.2017 20:00:00 5,4 -0,5 3,7 16 9 32 18 WZW 1010,9 10 0,0
21.03.2017 19:00:00 6,8 -0,7 6,3 28 15 43 23 W 1010,1 10 0,0
21.03.2017 18:00:00 7,8 -1,3 7,7 29 16 43 23 WZW 1009,4 10 0,0
21.03.2017 17:00:00 8,1 -1,8 8,9 34 18 50 27 WZW 1008,9 10 0,0
21.03.2017 16:00:00 8,1 0,0 8,1 28 15 50 27 W 1008,2 10 0,0
21.03.2017 15:00:00 7,9 1,3 7,3 28 15 47 25 W 1007,7 10 0,0
21.03.2017 14:00:00 7,4 1,0 7,3 26 14 58 31 W 1007,2 10 0,0
21.03.2017 13:00:00 8,9 1,2 9,7 31 17 50 27 W 1006,4 10 0,0
21.03.2017 12:00:00 9,1 3,9 8,4 31 17 50 27 W 1005,6 10 0,0
21.03.2017 11:00:00 8,8 4,5 9,5 31 17 50 27 WZW 1004,7 10 0,0
21.03.2017 10:00:00 8,2 6,1 7,7 28 15 40 21 WZW 1004,2 10 0,0
21.03.2017 09:00:00 7,0 6,2 6,2 18 10 29 16 ZW 1003,6 7 0,0
21.03.2017 08:00:00 5,8 5,5 5,0 18 10 25 14 ZZW 1003,5 5 0,0
21.03.2017 07:00:00 5,2 4,9 4,3 15 8 22 12 ZZW 1003,3 5 0,0
21.03.2017 06:00:00 - - - - - - - - - - -

tt = temperatuur
td = dauwpunt
tt 5cm = temperatuur 5cm
ff = windsnelheid
fx = windstoten
dd = windrichting
ppp = luchtdruk
vv = zicht
rr = neerslag

Weerstations in de omgeving